Wetterdaten: Sonntag, 16.06.2013
Datum Zeit Temperatur Luftfeuchte Luftdruck Regen Wind Richtung Richtung Sonnenschein ET UV Solar Taupunkt Windchill Windben
16.06.2013 00:00 13,8 C 77 % 1014,9 hPa 0,0 l/m 2,5 km/h (1 Bft) W-NW 301 0 min 0,000 mm 0,0 UV-I 0 W/m 9,8 C 13,8 C 8,0 km/h (2 Bft)
16.06.2013 00:05 13,8 C 78 % 1015,1 hPa 0,0 l/m 4,0 km/h (1 Bft) NW 315 0 min 0,000 mm 0,0 UV-I 0 W/m 10,0 C 13,8 C 6,4 km/h (2 Bft)
16.06.2013 00:10 13,9 C 77 % 1015,1 hPa 0,0 l/m 5,7 km/h (1 Bft) W 277 0 min 0,000 mm 0,0 UV-I 0 W/m 9,9 C 13,9 C 12,9 km/h (3 Bft)
16.06.2013 00:15 13,9 C 77 % 1015,1 hPa 0,0 l/m 0,3 km/h (0 Bft) W 277 0 min 0,000 mm 0,0 UV-I 0 W/m 9,9 C 13,9 C 3,2 km/h (1 Bft)
16.06.2013 00:20 13,7 C 78 % 1015,2 hPa 0,0 l/m 0,0 km/h (0 Bft) W 277 0 min 0,000 mm 0,0 UV-I 0 W/m 9,9 C 13,7 C 0,0 km/h (0 Bft)
16.06.2013 00:25 13,6 C 78 % 1015,1 hPa 0,0 l/m 0,0 km/h (0 Bft) W 277 0 min 0,000 mm 0,0 UV-I 0 W/m 9,8 C 13,6 C 0,0 km/h (0 Bft)
16.06.2013 00:30 13,3 C 79 % 1015,2 hPa 0,0 l/m 0,0 km/h (0 Bft) W 277 0 min 0,000 mm 0,0 UV-I 0 W/m 9,7 C 13,3 C 0,0 km/h (0 Bft)
16.06.2013 00:35 13,2 C 79 % 1015,2 hPa 0,0 l/m 0,0 km/h (0 Bft) W 277 0 min 0,000 mm 0,0 UV-I 0 W/m 9,6 C 13,2 C 0,0 km/h (0 Bft)
16.06.2013 00:40 13,1 C 80 % 1015,2 hPa 0,0 l/m 0,0 km/h (0 Bft) W 277 0 min 0,000 mm 0,0 UV-I 0 W/m 9,7 C 13,1 C 0,0 km/h (0 Bft)
16.06.2013 00:45 12,9 C 80 % 1015,2 hPa 0,0 l/m 0,0 km/h (0 Bft) W 277 0 min 0,000 mm 0,0 UV-I 0 W/m 9,5 C 12,9 C 0,0 km/h (0 Bft)
16.06.2013 00:50 12,8 C 80 % 1015,2 hPa 0,0 l/m 0,1 km/h (0 Bft) W 277 0 min 0,000 mm 0,0 UV-I 0 W/m 9,4 C 12,8 C 1,6 km/h (1 Bft)
16.06.2013 00:55 12,7 C 81 % 1015,2 hPa 0,0 l/m 0,2 km/h (0 Bft) W 277 0 min 0,000 mm 0,0 UV-I 0 W/m 9,5 C 12,7 C 3,2 km/h (1 Bft)
16.06.2013 01:00 12,6 C 81 % 1015,2 hPa 0,0 l/m 0,0 km/h (0 Bft) W 277 0 min 0,000 mm 0,0 UV-I 0 W/m 9,4 C 12,6 C 1,6 km/h (1 Bft)
16.06.2013 01:05 12,5 C 81 % 1015,3 hPa 0,0 l/m 0,1 km/h (0 Bft) W 277 0 min 0,025 mm 0,0 UV-I 0 W/m 9,3 C 12,5 C 1,6 km/h (1 Bft)
16.06.2013 01:10 12,4 C 82 % 1015,4 hPa 0,0 l/m 0,1 km/h (0 Bft) W 277 0 min 0,000 mm 0,0 UV-I 0 W/m 9,4 C 12,4 C 3,2 km/h (1 Bft)
16.06.2013 01:15 12,3 C 82 % 1015,4 hPa 0,0 l/m 0,0 km/h (0 Bft) W 277 0 min 0,000 mm 0,0 UV-I 0 W/m 9,3 C 12,3 C 0,0 km/h (0 Bft)
16.06.2013 01:20 12,2 C 82 % 1015,5 hPa 0,0 l/m 0,1 km/h (0 Bft) W 277 0 min 0,000 mm 0,0 UV-I 0 W/m 9,2 C 12,2 C 3,2 km/h (1 Bft)
16.06.2013 01:25 12,1 C 82 % 1015,5 hPa 0,0 l/m 0,0 km/h (0 Bft) W 277 0 min 0,000 mm 0,0 UV-I 0 W/m 9,1 C 12,1 C 0,0 km/h (0 Bft)
16.06.2013 01:30 11,9 C 83 % 1015,5 hPa 0,0 l/m 0,0 km/h (0 Bft) W 277 0 min 0,000 mm 0,0 UV-I 0 W/m 9,1 C 11,9 C 0,0 km/h (0 Bft)
16.06.2013 01:35 11,7 C 83 % 1015,4 hPa 0,0 l/m 0,0 km/h (0 Bft) W 277 0 min 0,000 mm 0,0 UV-I 0 W/m 8,9 C 11,7 C 1,6 km/h (1 Bft)
16.06.2013 01:40 11,6 C 84 % 1015,4 hPa 0,0 l/m 0,0 km/h (0 Bft) W 277 0 min 0,000 mm 0,0 UV-I 0 W/m 9,0 C 11,6 C 0,0 km/h (0 Bft)
16.06.2013 01:45 11,4 C 84 % 1015,5 hPa 0,0 l/m 0,0 km/h (0 Bft) W 277 0 min 0,000 mm 0,0 UV-I 0 W/m 8,8 C 11,4 C 0,0 km/h (0 Bft)
16.06.2013 01:50 11,3 C 84 % 1015,5 hPa 0,0 l/m 0,0 km/h (0 Bft) W 277 0 min 0,000 mm 0,0 UV-I 0 W/m 8,7 C 11,3 C 0,0 km/h (0 Bft)
16.06.2013 01:55 11,2 C 85 % 1015,6 hPa 0,0 l/m 0,0 km/h (0 Bft) W 277 0 min 0,000 mm 0,0 UV-I 0 W/m 8,8 C 11,2 C 0,0 km/h (0 Bft)
16.06.2013 02:00 11,1 C 85 % 1015,6 hPa 0,0 l/m 0,0 km/h (0 Bft) W 277 0 min 0,000 mm 0,0 UV-I 0 W/m 8,7 C 11,1 C 0,0 km/h (0 Bft)
16.06.2013 02:05 11,0 C 86 % 1015,6 hPa 0,0 l/m 0,0 km/h (0 Bft) W 277 0 min 0,000 mm 0,0 UV-I 0 W/m 8,7 C 11,0 C 0,0 km/h (0 Bft)
16.06.2013 02:10 10,9 C 86 % 1015,6 hPa 0,0 l/m 0,0 km/h (0 Bft) W 277 0 min 0,000 mm 0,0 UV-I 0 W/m 8,7 C 10,9 C 0,0 km/h (0 Bft)
16.06.2013 02:15 10,8 C 86 % 1015,6 hPa 0,0 l/m 0,0 km/h (0 Bft) W 277 0 min 0,000 mm 0,0 UV-I 0 W/m 8,6 C 10,8 C 0,0 km/h (0 Bft)
16.06.2013 02:20 10,7 C 87 % 1015,6 hPa 0,0 l/m 0,0 km/h (0 Bft) W 277 0 min 0,000 mm 0,0 UV-I 0 W/m 8,6 C 10,7 C 0,0 km/h (0 Bft)
16.06.2013 02:25 10,7 C 87 % 1015,5 hPa 0,0 l/m 0,0 km/h (0 Bft) W 277 0 min 0,000 mm 0,0 UV-I 0 W/m 8,6 C 10,7 C 0,0 km/h (0 Bft)
16.06.2013 02:30 10,6 C 87 % 1015,6 hPa 0,0 l/m 0,0 km/h (0 Bft) W 277 0 min 0,000 mm 0,0 UV-I 0 W/m 8,5 C 10,6 C 0,0 km/h (0 Bft)
16.06.2013 02:35 10,5 C 87 % 1015,6 hPa 0,0 l/m 0,0 km/h (0 Bft) W 277 0 min 0,000 mm 0,0 UV-I 0 W/m 8,4 C 10,5 C 0,0 km/h (0 Bft)
16.06.2013 02:40 10,3 C 87 % 1015,7 hPa 0,0 l/m 0,0 km/h (0 Bft) W 277 0 min 0,000 mm 0,0 UV-I 0 W/m 8,2 C 10,3 C 0,0 km/h (0 Bft)
16.06.2013 02:45 10,2 C 88 % 1015,7 hPa 0,0 l/m 0,0 km/h (0 Bft) W 277 0 min 0,000 mm 0,0 UV-I 0 W/m 8,3 C 10,2 C 0,0 km/h (0 Bft)
16.06.2013 02:50 10,0 C 88 % 1015,6 hPa 0,0 l/m 0,0 km/h (0 Bft) W 277 0 min 0,000 mm 0,0 UV-I 0 W/m 8,1 C 10,0 C 0,0 km/h (0 Bft)
16.06.2013 02:55 9,9 C 88 % 1015,6 hPa 0,0 l/m 0,0 km/h (0 Bft) W 277 0 min 0,000 mm 0,0 UV-I 0 W/m 8,0 C 9,9 C 0,0 km/h (0 Bft)
16.06.2013 03:00 9,8 C 88 % 1015,6 hPa 0,0 l/m 0,0 km/h (0 Bft) W 277 0 min 0,000 mm 0,0 UV-I 0 W/m 7,9 C 9,8 C 0,0 km/h (0 Bft)
16.06.2013 03:05 9,7 C 89 % 1015,7 hPa 0,0 l/m 0,0 km/h (0 Bft) W 277 0 min 0,000 mm 0,0 UV-I 0 W/m 8,0 C 9,7 C 0,0 km/h (0 Bft)
16.06.2013 03:10 9,6 C 89 % 1015,6 hPa 0,0 l/m 0,0 km/h (0 Bft) W 277 0 min 0,000 mm 0,0 UV-I 0 W/m 7,9 C 9,6 C 0,0 km/h (0 Bft)
16.06.2013 03:15 9,6 C 89 % 1015,7 hPa 0,0 l/m 0,0 km/h (0 Bft) W 277 0 min 0,000 mm 0,0 UV-I 0 W/m 7,9 C 9,6 C 0,0 km/h (0 Bft)
16.06.2013 03:20 9,4 C 89 % 1015,7 hPa 0,0 l/m 0,0 km/h (0 Bft) W 277 0 min 0,000 mm 0,0 UV-I 0 W/m 7,7 C 9,4 C 0,0 km/h (0 Bft)
16.06.2013 03:25 9,3 C 89 % 1015,7 hPa 0,0 l/m 0,0 km/h (0 Bft) W 277 0 min 0,000 mm 0,0 UV-I 0 W/m 7,6 C 9,3 C 0,0 km/h (0 Bft)
16.06.2013 03:30 9,3 C 89 % 1015,7 hPa 0,0 l/m 0,0 km/h (0 Bft) W 277 0 min 0,000 mm 0,0 UV-I 0 W/m 7,6 C 9,3 C 0,0 km/h (0 Bft)
16.06.2013 03:35 9,2 C 89 % 1015,6 hPa 0,0 l/m 0,0 km/h (0 Bft) W 277 0 min 0,000 mm 0,0 UV-I 0 W/m 7,5 C 9,2 C 0,0 km/h (0 Bft)
16.06.2013 03:40 9,2 C 90 % 1015,6 hPa 0,0 l/m 0,0 km/h (0 Bft) W 277 0 min 0,000 mm 0,0 UV-I 0 W/m 7,6 C 9,2 C 0,0 km/h (0 Bft)
16.06.2013 03:45 9,1 C 90 % 1015,7 hPa 0,0 l/m 0,0 km/h (0 Bft) W 277 0 min 0,000 mm 0,0 UV-I 0 W/m 7,5 C 9,1 C 0,0 km/h (0 Bft)
16.06.2013 03:50 9,0 C 90 % 1015,7 hPa 0,0 l/m 0,0 km/h (0 Bft) W 277 0 min 0,000 mm 0,0 UV-I 0 W/m 7,4 C 9,0 C 0,0 km/h (0 Bft)
16.06.2013 03:55 8,9 C 90 % 1015,7 hPa 0,0 l/m 0,0 km/h (0 Bft) W 277 0 min 0,000 mm 0,0 UV-I 0 W/m 7,4 C 8,9 C 0,0 km/h (0 Bft)
16.06.2013 04:00 8,9 C 90 % 1015,6 hPa 0,0 l/m 0,0 km/h (0 Bft) W 277 0 min 0,000 mm 0,0 UV-I 0 W/m 7,4 C 8,9 C 0,0 km/h (0 Bft)
16.06.2013 04:05 8,8 C 90 % 1015,7 hPa 0,0 l/m 0,0 km/h (0 Bft) W 277 0 min 0,000 mm 0,0 UV-I 0 W/m 7,3 C 8,8 C 0,0 km/h (0 Bft)
16.06.2013 04:10 8,8 C 91 % 1015,6 hPa 0,0 l/m 0,0 km/h (0 Bft) W 277 0 min 0,000 mm 0,0 UV-I 0 W/m 7,4 C 8,8 C 0,0 km/h (0 Bft)
16.06.2013 04:15 8,7 C 90 % 1015,7 hPa 0,0 l/m 0,0 km/h (0 Bft) W 277 0 min 0,000 mm 0,0 UV-I 0 W/m 7,2 C 8,7 C 1,6 km/h (1 Bft)
16.06.2013 04:20 8,6 C 91 % 1015,8 hPa 0,0 l/m 0,0 km/h (0 Bft) W 277 0 min 0,000 mm 0,0 UV-I 0 W/m 7,2 C 8,6 C 0,0 km/h (0 Bft)
16.06.2013 04:25 8,5 C 91 % 1015,8 hPa 0,0 l/m 0,0 km/h (0 Bft) W 277 0 min 0,000 mm 0,0 UV-I 0 W/m 7,1 C 8,5 C 0,0 km/h (0 Bft)
16.06.2013 04:30 8,4 C 91 % 1015,7 hPa 0,0 l/m 0,0 km/h (0 Bft) W 277 0 min 0,000 mm 0,0 UV-I 0 W/m 7,0 C 8,4 C 0,0 km/h (0 Bft)
16.06.2013 04:35 8,4 C 91 % 1015,7 hPa 0,0 l/m 0,0 km/h (0 Bft) W 277 0 min 0,000 mm 0,0 UV-I 0 W/m 7,0 C 8,4 C 1,6 km/h (1 Bft)
16.06.2013 04:40 8,4 C 91 % 1015,8 hPa 0,0 l/m 0,0 km/h (0 Bft) W 277 0 min 0,000 mm 0,0 UV-I 0 W/m 7,0 C 8,4 C 1,6 km/h (1 Bft)
16.06.2013 04:45 8,4 C 92 % 1015,7 hPa 0,0 l/m 0,0 km/h (0 Bft) W 277 0 min 0,000 mm 0,0 UV-I 0 W/m 7,2 C 8,4 C 0,0 km/h (0 Bft)
16.06.2013 04:50 8,4 C 92 % 1015,8 hPa 0,0 l/m 0,0 km/h (0 Bft) W 277 0 min 0,000 mm 0,0 UV-I 0 W/m 7,2 C 8,4 C 0,0 km/h (0 Bft)
16.06.2013 04:55 8,3 C 92 % 1015,8 hPa 0,0 l/m 0,0 km/h (0 Bft) W 277 0 min 0,000 mm 0,0 UV-I 0 W/m 7,1 C 8,3 C 0,0 km/h (0 Bft)
16.06.2013 05:00 8,3 C 92 % 1015,8 hPa 0,0 l/m 0,0 km/h (0 Bft) W 277 0 min 0,000 mm 0,0 UV-I 0 W/m 7,1 C 8,3 C 0,0 km/h (0 Bft)
16.06.2013 05:05 8,3 C 92 % 1015,8 hPa 0,0 l/m 0,0 km/h (0 Bft) W 277 0 min 0,000 mm 0,0 UV-I 0 W/m 7,1 C 8,3 C 0,0 km/h (0 Bft)
16.06.2013 05:10 8,2 C 91 % 1015,9 hPa 0,0 l/m 0,0 km/h (0 Bft) W 277 0 min 0,000 mm 0,0 UV-I 0 W/m 6,8 C 8,2 C 0,0 km/h (0 Bft)
16.06.2013 05:15 8,1 C 91 % 1016,1 hPa 0,0 l/m 0,0 km/h (0 Bft) W 277 0 min 0,000 mm 0,0 UV-I 0 W/m 6,7 C 8,1 C 0,0 km/h (0 Bft)
16.06.2013 05:20 8,1 C 92 % 1016,2 hPa 0,0 l/m 0,0 km/h (0 Bft) W 277 0 min 0,000 mm 0,0 UV-I 0 W/m 6,9 C 8,1 C 1,6 km/h (1 Bft)
16.06.2013 05:25 8,0 C 92 % 1016,1 hPa 0,0 l/m 0,0 km/h (0 Bft) W 277 0 min 0,000 mm 0,0 UV-I 5 W/m 6,8 C 8,0 C 0,0 km/h (0 Bft)
16.06.2013 05:30 8,0 C 92 % 1016,2 hPa 0,0 l/m 0,0 km/h (0 Bft) W 277 0 min 0,000 mm 0,0 UV-I 7 W/m 6,8 C 8,0 C 0,0 km/h (0 Bft)
16.06.2013 05:35 7,9 C 92 % 1016,1 hPa 0,0 l/m 0,1 km/h (0 Bft) W 277 0 min 0,000 mm 0,0 UV-I 7 W/m 6,7 C 7,9 C 1,6 km/h (1 Bft)
16.06.2013 05:40 7,9 C 92 % 1016,1 hPa 0,0 l/m 0,0 km/h (0 Bft) W 277 0 min 0,000 mm 0,0 UV-I 9 W/m 6,7 C 7,9 C 1,6 km/h (1 Bft)
16.06.2013 05:45 7,9 C 92 % 1016,2 hPa 0,0 l/m 0,0 km/h (0 Bft) W 277 0 min 0,000 mm 0,0 UV-I 14 W/m 6,7 C 7,9 C 1,6 km/h (1 Bft)
16.06.2013 05:50 7,8 C 92 % 1016,3 hPa 0,0 l/m 0,0 km/h (0 Bft) W 277 0 min 0,000 mm 0,0 UV-I 21 W/m 6,6 C 7,8 C 0,0 km/h (0 Bft)
16.06.2013 05:55 7,8 C 92 % 1016,3 hPa 0,0 l/m 0,0 km/h (0 Bft) W 277 0 min 0,000 mm 0,0 UV-I 18 W/m 6,6 C 7,8 C 0,0 km/h (0 Bft)
16.06.2013 06:00 7,8 C 92 % 1016,3 hPa 0,0 l/m 0,0 km/h (0 Bft) W 277 0 min 0,000 mm 0,0 UV-I 18 W/m 6,6 C 7,8 C 0,0 km/h (0 Bft)
16.06.2013 06:05 7,9 C 92 % 1016,4 hPa 0,0 l/m 0,0 km/h (0 Bft) W 277 0 min 0,000 mm 0,0 UV-I 21 W/m 6,7 C 7,9 C 0,0 km/h (0 Bft)
16.06.2013 06:10 7,9 C 92 % 1016,3 hPa 0,0 l/m 0,1 km/h (0 Bft) W 277 0 min 0,000 mm 0,0 UV-I 28 W/m 6,7 C 7,9 C 1,6 km/h (1 Bft)
16.06.2013 06:15 7,8 C 92 % 1016,4 hPa 0,0 l/m 0,0 km/h (0 Bft) W 277 0 min 0,000 mm 0,0 UV-I 35 W/m 6,6 C 7,8 C 0,0 km/h (0 Bft)
16.06.2013 06:20 7,8 C 92 % 1016,4 hPa 0,0 l/m 0,0 km/h (0 Bft) W 277 0 min 0,000 mm 0,0 UV-I 42 W/m 6,6 C 7,8 C 0,0 km/h (0 Bft)
16.06.2013 06:25 7,9 C 93 % 1016,4 hPa 0,0 l/m 0,0 km/h (0 Bft) W 277 0 min 0,000 mm 0,0 UV-I 40 W/m 6,8 C 7,9 C 0,0 km/h (0 Bft)
16.06.2013 06:30 7,9 C 93 % 1016,5 hPa 0,0 l/m 0,0 km/h (0 Bft) W 277 0 min 0,000 mm 0,0 UV-I 40 W/m 6,8 C 7,9 C 0,0 km/h (0 Bft)
16.06.2013 06:35 8,0 C 93 % 1016,4 hPa 0,0 l/m 0,0 km/h (0 Bft) W 277 0 min 0,000 mm 0,0 UV-I 40 W/m 6,9 C 8,0 C 0,0 km/h (0 Bft)
16.06.2013 06:40 8,1 C 93 % 1016,5 hPa 0,0 l/m 0,0 km/h (0 Bft) W 277 0 min 0,000 mm 0,0 UV-I 58 W/m 7,0 C 8,1 C 0,0 km/h (0 Bft)
16.06.2013 06:45 8,3 C 93 % 1016,4 hPa 0,0 l/m 0,0 km/h (0 Bft) W 277 0 min 0,000 mm 0,0 UV-I 77 W/m 7,2 C 8,3 C 0,0 km/h (0 Bft)
16.06.2013 06:50 8,4 C 93 % 1016,4 hPa 0,0 l/m 0,0 km/h (0 Bft) W 277 5 min 0,000 mm 0,0 UV-I 183 W/m 7,3 C 8,4 C 0,0 km/h (0 Bft)
16.06.2013 06:55 8,7 C 93 % 1016,3 hPa 0,0 l/m 0,0 km/h (0 Bft) W 277 5 min 0,000 mm 0,0 UV-I 185 W/m 7,6 C 8,7 C 0,0 km/h (0 Bft)
16.06.2013 07:00 9,0 C 94 % 1016,3 hPa 0,0 l/m 0,0 km/h (0 Bft) W 277 0 min 0,000 mm 0,0 UV-I 111 W/m 8,1 C 9,0 C 0,0 km/h (0 Bft)
16.06.2013 07:05 9,3 C 93 % 1016,3 hPa 0,0 l/m 0,0 km/h (0 Bft) W 277 0 min 0,026 mm 0,0 UV-I 105 W/m 8,2 C 9,3 C 0,0 km/h (0 Bft)
16.06.2013 07:10 9,4 C 93 % 1016,3 hPa 0,0 l/m 0,0 km/h (0 Bft) W 277 5 min 0,000 mm 0,0 UV-I 148 W/m 8,3 C 9,4 C 0,0 km/h (0 Bft)
16.06.2013 07:15 9,6 C 92 % 1016,3 hPa 0,0 l/m 0,0 km/h (0 Bft) W 277 0 min 0,000 mm 0,0 UV-I 114 W/m 8,4 C 9,6 C 1,6 km/h (1 Bft)
16.06.2013 07:20 9,7 C 92 % 1016,3 hPa 0,0 l/m 0,1 km/h (0 Bft) W 277 0 min 0,000 mm 0,0 UV-I 113 W/m 8,5 C 9,7 C 1,6 km/h (1 Bft)
16.06.2013 07:25 9,9 C 92 % 1016,3 hPa 0,0 l/m 0,0 km/h (0 Bft) W 277 0 min 0,000 mm 0,5 UV-I 114 W/m 8,7 C 9,9 C 1,6 km/h (1 Bft)
16.06.2013 07:30 10,1 C 92 % 1016,5 hPa 0,0 l/m 0,0 km/h (0 Bft) W 277 0 min 0,000 mm 0,5 UV-I 128 W/m 8,9 C 10,1 C 0,0 km/h (0 Bft)
16.06.2013 07:35 10,3 C 92 % 1016,5 hPa 0,0 l/m 0,0 km/h (0 Bft) W 277 0 min 0,000 mm 0,5 UV-I 141 W/m 9,1 C 10,3 C 0,0 km/h (0 Bft)
16.06.2013 07:40 10,4 C 91 % 1016,5 hPa 0,0 l/m 0,0 km/h (0 Bft) W 277 0 min 0,000 mm 0,5 UV-I 144 W/m 9,0 C 10,4 C 0,0 km/h (0 Bft)
16.06.2013 07:45 10,7 C 91 % 1016,4 hPa 0,0 l/m 0,0 km/h (0 Bft) W 277 0 min 0,000 mm 0,5 UV-I 134 W/m 9,3 C 10,7 C 0,0 km/h (0 Bft)
16.06.2013 07:50 10,9 C 91 % 1016,4 hPa 0,0 l/m 0,0 km/h (0 Bft) W 277 0 min 0,000 mm 0,6 UV-I 139 W/m 9,5 C 10,9 C 0,0 km/h (0 Bft)
16.06.2013 07:55 11,2 C 91 % 1016,4 hPa 0,0 l/m 0,0 km/h (0 Bft) W 277 0 min 0,000 mm 0,6 UV-I 144 W/m 9,8 C 11,2 C 0,0 km/h (0 Bft)
16.06.2013 08:00 11,3 C 90 % 1016,4 hPa 0,0 l/m 0,0 km/h (0 Bft) W 277 0 min 0,000 mm 0,6 UV-I 137 W/m 9,7 C 11,3 C 0,0 km/h (0 Bft)
16.06.2013 08:05 11,6 C 90 % 1016,5 hPa 0,0 l/m 0,0 km/h (0 Bft) W 277 0 min 0,051 mm 0,7 UV-I 171 W/m 10,0 C 11,6 C 0,0 km/h (0 Bft)
16.06.2013 08:10 11,8 C 89 % 1016,4 hPa 0,0 l/m 0,0 km/h (0 Bft) W 277 0 min 0,000 mm 0,8 UV-I 195 W/m 10,0 C 11,8 C 1,6 km/h (1 Bft)
16.06.2013 08:15 12,1 C 86 % 1016,3 hPa 0,0 l/m 0,3 km/h (0 Bft) W 277 5 min 0,000 mm 0,9 UV-I 243 W/m 9,8 C 12,1 C 3,2 km/h (1 Bft)
16.06.2013 08:20 12,3 C 84 % 1016,4 hPa 0,0 l/m 0,1 km/h (0 Bft) W 278 0 min 0,000 mm 0,9 UV-I 199 W/m 9,7 C 12,3 C 1,6 km/h (1 Bft)
16.06.2013 08:25 12,6 C 82 % 1016,5 hPa 0,0 l/m 1,1 km/h (1 Bft) S-SW 202 0 min 0,000 mm 0,9 UV-I 207 W/m 9,6 C 12,6 C 4,8 km/h (1 Bft)
16.06.2013 08:30 12,8 C 82 % 1016,5 hPa 0,0 l/m 0,0 km/h (0 Bft) S-SW 202 0 min 0,000 mm 1,0 UV-I 218 W/m 9,8 C 12,8 C 1,6 km/h (1 Bft)
16.06.2013 08:35 13,1 C 80 % 1016,5 hPa 0,0 l/m 0,3 km/h (0 Bft) S-SW 195 5 min 0,000 mm 1,2 UV-I 290 W/m 9,7 C 13,1 C 1,6 km/h (1 Bft)
16.06.2013 08:40 13,4 C 79 % 1016,5 hPa 0,0 l/m 2,0 km/h (1 Bft) O-SO 104 0 min 0,000 mm 1,1 UV-I 190 W/m 9,8 C 13,4 C 11,3 km/h (2 Bft)
16.06.2013 08:45 13,6 C 77 % 1016,5 hPa 0,0 l/m 3,1 km/h (1 Bft) S 169 5 min 0,000 mm 1,4 UV-I 339 W/m 9,6 C 13,6 C 9,7 km/h (2 Bft)
16.06.2013 08:50 13,7 C 78 % 1016,7 hPa 0,0 l/m 3,7 km/h (1 Bft) S 184 0 min 0,000 mm 1,3 UV-I 206 W/m 9,9 C 13,7 C 6,4 km/h (2 Bft)
16.06.2013 08:55 13,9 C 77 % 1016,8 hPa 0,0 l/m 2,9 km/h (1 Bft) SW 229 5 min 0,000 mm 1,8 UV-I 515 W/m 9,9 C 13,9 C 8,0 km/h (2 Bft)
16.06.2013 09:00 14,3 C 77 % 1016,8 hPa 0,0 l/m 2,7 km/h (1 Bft) S-SW 202 5 min 0,000 mm 1,9 UV-I 469 W/m 10,3 C 14,3 C 8,0 km/h (2 Bft)
16.06.2013 09:05 14,6 C 75 % 1016,8 hPa 0,0 l/m 3,3 km/h (1 Bft) SW 216 0 min 0,152 mm 1,5 UV-I 255 W/m 10,2 C 14,6 C 9,7 km/h (2 Bft)
16.06.2013 09:10 14,8 C 74 % 1016,7 hPa 0,0 l/m 1,9 km/h (1 Bft) S-SO 161 0 min 0,000 mm 1,6 UV-I 269 W/m 10,2 C 14,8 C 8,0 km/h (2 Bft)
16.06.2013 09:15 14,7 C 74 % 1016,8 hPa 0,0 l/m 3,6 km/h (1 Bft) SW 232 5 min 0,000 mm 2,0 UV-I 496 W/m 10,1 C 14,7 C 8,0 km/h (2 Bft)
16.06.2013 09:20 14,8 C 73 % 1016,8 hPa 0,0 l/m 2,7 km/h (1 Bft) SW 233 0 min 0,000 mm 1,6 UV-I 311 W/m 10,0 C 14,8 C 8,0 km/h (2 Bft)
16.06.2013 09:25 14,9 C 74 % 1016,7 hPa 0,0 l/m 1,5 km/h (1 Bft) S 182 0 min 0,000 mm 1,7 UV-I 299 W/m 10,3 C 14,9 C 4,8 km/h (1 Bft)
16.06.2013 09:30 15,3 C 72 % 1016,7 hPa 0,0 l/m 0,9 km/h (0 Bft) S-SO 159 0 min 0,000 mm 1,9 UV-I 306 W/m 10,3 C 15,3 C 4,8 km/h (1 Bft)
16.06.2013 09:35 15,5 C 71 % 1016,8 hPa 0,0 l/m 0,8 km/h (0 Bft) S-SO 161 5 min 0,000 mm 2,2 UV-I 373 W/m 10,3 C 15,5 C 3,2 km/h (1 Bft)
16.06.2013 09:40 15,7 C 70 % 1016,8 hPa 0,0 l/m 1,4 km/h (1 Bft) W 276 5 min 0,000 mm 2,0 UV-I 346 W/m 10,2 C 15,7 C 4,8 km/h (1 Bft)
16.06.2013 09:45 15,6 C 69 % 1016,7 hPa 0,0 l/m 4,7 km/h (1 Bft) S-SW 213 5 min 0,000 mm 2,1 UV-I 352 W/m 9,9 C 15,6 C 11,3 km/h (2 Bft)
16.06.2013 09:50 16,1 C 69 % 1016,6 hPa 0,0 l/m 2,6 km/h (1 Bft) O-NO 78 0 min 0,000 mm 2,0 UV-I 316 W/m 10,4 C 16,1 C 8,0 km/h (2 Bft)
16.06.2013 09:55 15,7 C 69 % 1016,6 hPa 0,0 l/m 6,5 km/h (2 Bft) SO 137 0 min 0,000 mm 1,9 UV-I 285 W/m 10,0 C 15,7 C 12,9 km/h (3 Bft)
16.06.2013 10:00 15,3 C 71 % 1016,5 hPa 0,0 l/m 6,8 km/h (2 Bft) S-SO 156 0 min 0,000 mm 1,9 UV-I 316 W/m 10,1 C 15,1 C 19,3 km/h (3 Bft)
16.06.2013 10:05 15,3 C 72 % 1016,6 hPa 0,0 l/m 5,2 km/h (1 Bft) S-SW 213 0 min 0,178 mm 1,6 UV-I 253 W/m 10,3 C 15,3 C 12,9 km/h (3 Bft)
16.06.2013 10:10 15,4 C 69 % 1016,5 hPa 0,0 l/m 5,8 km/h (2 Bft) SO 134 0 min 0,000 mm 1,4 UV-I 220 W/m 9,7 C 15,4 C 11,3 km/h (2 Bft)
16.06.2013 10:15 15,2 C 71 % 1016,4 hPa 0,0 l/m 3,8 km/h (1 Bft) S-SO 167 0 min 0,000 mm 1,5 UV-I 227 W/m 10,0 C 15,2 C 9,7 km/h (2 Bft)
16.06.2013 10:20 15,1 C 72 % 1016,4 hPa 0,0 l/m 6,6 km/h (2 Bft) S-SO 161 0 min 0,000 mm 1,6 UV-I 232 W/m 10,1 C 15,0 C 11,3 km/h (2 Bft)
16.06.2013 10:25 15,0 C 72 % 1016,3 hPa 0,0 l/m 5,8 km/h (2 Bft) O-NO 74 0 min 0,000 mm 1,4 UV-I 209 W/m 10,0 C 15,0 C 14,5 km/h (3 Bft)
16.06.2013 10:30 15,0 C 73 % 1016,4 hPa 0,0 l/m 4,7 km/h (1 Bft) S 185 0 min 0,000 mm 1,7 UV-I 246 W/m 10,2 C 15,0 C 14,5 km/h (3 Bft)
16.06.2013 10:35 15,2 C 71 % 1016,4 hPa 0,0 l/m 4,0 km/h (1 Bft) S-SO 159 0 min 0,000 mm 2,0 UV-I 287 W/m 10,0 C 15,2 C 8,0 km/h (2 Bft)
16.06.2013 10:40 15,0 C 72 % 1016,6 hPa 0,0 l/m 5,4 km/h (1 Bft) S-SO 153 0 min 0,000 mm 2,2 UV-I 308 W/m 10,0 C 15,0 C 14,5 km/h (3 Bft)
16.06.2013 10:45 15,4 C 73 % 1016,6 hPa 0,0 l/m 2,4 km/h (1 Bft) S-SW 195 0 min 0,000 mm 2,3 UV-I 313 W/m 10,6 C 15,4 C 6,4 km/h (2 Bft)
16.06.2013 10:50 15,8 C 70 % 1016,6 hPa 0,0 l/m 3,2 km/h (1 Bft) W 269 0 min 0,000 mm 2,5 UV-I 345 W/m 10,3 C 15,8 C 9,7 km/h (2 Bft)
16.06.2013 10:55 16,1 C 69 % 1016,6 hPa 0,0 l/m 3,2 km/h (1 Bft) S-SW 209 0 min 0,000 mm 2,9 UV-I 396 W/m 10,4 C 16,1 C 8,0 km/h (2 Bft)
16.06.2013 11:00 16,1 C 68 % 1016,5 hPa 0,0 l/m 2,5 km/h (1 Bft) SW 215 5 min 0,000 mm 3,4 UV-I 469 W/m 10,2 C 16,1 C 8,0 km/h (2 Bft)
16.06.2013 11:05 16,2 C 69 % 1016,5 hPa 0,0 l/m 3,4 km/h (1 Bft) S-SW 201 5 min 0,178 mm 4,2 UV-I 561 W/m 10,5 C 16,2 C 9,7 km/h (2 Bft)
16.06.2013 11:10 17,0 C 66 % 1016,5 hPa 0,0 l/m 3,2 km/h (1 Bft) S-SW 210 5 min 0,000 mm 4,3 UV-I 603 W/m 10,6 C 17,0 C 9,7 km/h (2 Bft)
16.06.2013 11:15 17,3 C 64 % 1016,5 hPa 0,0 l/m 4,1 km/h (1 Bft) S 182 5 min 0,000 mm 5,7 UV-I 860 W/m 10,4 C 17,3 C 11,3 km/h (2 Bft)
16.06.2013 11:20 17,5 C 64 % 1016,5 hPa 0,0 l/m 4,6 km/h (1 Bft) W 262 5 min 0,000 mm 5,5 UV-I 860 W/m 10,6 C 17,5 C 11,3 km/h (2 Bft)
16.06.2013 11:25 17,3 C 64 % 1016,6 hPa 0,0 l/m 4,8 km/h (1 Bft) S 190 5 min 0,000 mm 5,6 UV-I 891 W/m 10,4 C 17,3 C 16,1 km/h (3 Bft)
16.06.2013 11:30 17,3 C 63 % 1016,5 hPa 0,0 l/m 7,4 km/h (2 Bft) SW 217 0 min 0,000 mm 3,0 UV-I 178 W/m 10,2 C 16,8 C 17,7 km/h (3 Bft)
16.06.2013 11:35 17,2 C 62 % 1016,5 hPa 0,0 l/m 9,0 km/h (2 Bft) S-SW 209 5 min 0,000 mm 4,4 UV-I 940 W/m 9,9 C 16,0 C 16,1 km/h (3 Bft)
16.06.2013 11:40 17,3 C 61 % 1016,5 hPa 0,0 l/m 8,6 km/h (2 Bft) W-NW 284 0 min 0,000 mm 6,2 UV-I 285 W/m 9,7 C 16,2 C 17,7 km/h (3 Bft)
16.06.2013 11:45 17,7 C 61 % 1016,5 hPa 0,0 l/m 7,8 km/h (2 Bft) SW 231 5 min 0,000 mm 5,5 UV-I 1014 W/m 10,1 C 17,0 C 17,7 km/h (3 Bft)
16.06.2013 11:50 18,1 C 56 % 1016,5 hPa 0,0 l/m 9,1 km/h (2 Bft) W 259 0 min 0,000 mm 3,5 UV-I 401 W/m 9,2 C 16,9 C 20,9 km/h (4 Bft)
16.06.2013 11:55 17,3 C 61 % 1016,6 hPa 0,0 l/m 10,8 km/h (2 Bft) W 262 0 min 0,000 mm 3,5 UV-I 397 W/m 9,7 C 15,4 C 24,1 km/h (4 Bft)
16.06.2013 12:00 17,3 C 61 % 1016,5 hPa 0,0 l/m 9,9 km/h (2 Bft) SW 233 0 min 0,000 mm 3,9 UV-I 452 W/m 9,7 C 15,7 C 16,1 km/h (3 Bft)
16.06.2013 12:05 17,4 C 59 % 1016,5 hPa 0,0 l/m 8,6 km/h (2 Bft) W-SW 257 0 min 0,381 mm 2,6 UV-I 269 W/m 9,3 C 16,4 C 14,5 km/h (3 Bft)
16.06.2013 12:10 17,6 C 61 % 1016,4 hPa 0,0 l/m 9,0 km/h (2 Bft) S-SW 203 5 min 0,000 mm 5,2 UV-I 1158 W/m 10,0 C 16,4 C 19,3 km/h (3 Bft)
16.06.2013 12:15 18,6 C 57 % 1016,3 hPa 0,0 l/m 6,5 km/h (2 Bft) SW 221 0 min 0,000 mm 3,8 UV-I 318 W/m 9,9 C 18,6 C 19,3 km/h (3 Bft)
16.06.2013 12:20 19,0 C 57 % 1016,2 hPa 0,0 l/m 5,8 km/h (2 Bft) W-NW 303 0 min 0,000 mm 5,8 UV-I 318 W/m 10,3 C 19,0 C 14,5 km/h (3 Bft)
16.06.2013 12:25 18,7 C 53 % 1016,2 hPa 0,0 l/m 7,4 km/h (2 Bft) W-SW 242 0 min 0,000 mm 4,3 UV-I 436 W/m 8,9 C 18,2 C 14,5 km/h (3 Bft)
16.06.2013 12:30 18,6 C 55 % 1016,2 hPa 0,0 l/m 7,8 km/h (2 Bft) S-SW 211 0 min 0,000 mm 3,7 UV-I 410 W/m 9,4 C 18,0 C 16,1 km/h (3 Bft)
16.06.2013 12:35 18,4 C 54 % 1016,2 hPa 0,0 l/m 11,2 km/h (2 Bft) W 261 5 min 0,000 mm 5,2 UV-I 721 W/m 8,9 C 16,5 C 22,5 km/h (4 Bft)
16.06.2013 12:40 18,1 C 54 % 1016,2 hPa 0,0 l/m 7,9 km/h (2 Bft) W-NW 292 0 min 0,000 mm 5,2 UV-I 454 W/m 8,6 C 17,4 C 17,7 km/h (3 Bft)
16.06.2013 12:45 18,3 C 55 % 1016,3 hPa 0,0 l/m 9,5 km/h (2 Bft) SW 215 5 min 0,000 mm 5,7 UV-I 870 W/m 9,1 C 17,0 C 17,7 km/h (3 Bft)
16.06.2013 12:50 18,7 C 55 % 1016,2 hPa 0,0 l/m 7,6 km/h (2 Bft) W 261 5 min 0,000 mm 5,9 UV-I 631 W/m 9,5 C 18,2 C 19,3 km/h (3 Bft)
16.06.2013 12:55 18,4 C 56 % 1016,3 hPa 0,0 l/m 8,1 km/h (2 Bft) W-SW 252 0 min 0,000 mm 4,0 UV-I 464 W/m 9,5 C 17,6 C 14,5 km/h (3 Bft)
16.06.2013 13:00 18,8 C 55 % 1016,4 hPa 0,0 l/m 7,5 km/h (2 Bft) W-SW 239 5 min 0,000 mm 6,7 UV-I 1027 W/m 9,6 C 18,3 C 17,7 km/h (3 Bft)
16.06.2013 13:05 18,9 C 54 % 1016,3 hPa 0,0 l/m 9,0 km/h (2 Bft) W 281 5 min 0,381 mm 5,5 UV-I 687 W/m 9,4 C 17,8 C 19,3 km/h (3 Bft)
16.06.2013 13:10 19,3 C 54 % 1016,3 hPa 0,0 l/m 8,1 km/h (2 Bft) W 267 5 min 0,000 mm 5,5 UV-I 635 W/m 9,8 C 18,6 C 16,1 km/h (3 Bft)
16.06.2013 13:15 19,3 C 53 % 1016,2 hPa 0,0 l/m 7,2 km/h (2 Bft) S-SW 201 5 min 0,000 mm 5,5 UV-I 726 W/m 9,5 C 19,0 C 14,5 km/h (3 Bft)
16.06.2013 13:20 19,2 C 53 % 1016,2 hPa 0,0 l/m 7,1 km/h (2 Bft) SW 218 0 min 0,000 mm 3,8 UV-I 341 W/m 9,4 C 18,9 C 14,5 km/h (3 Bft)
16.06.2013 13:25 18,7 C 55 % 1016,2 hPa 0,0 l/m 6,0 km/h (2 Bft) W 261 0 min 0,000 mm 4,0 UV-I 388 W/m 9,5 C 18,7 C 16,1 km/h (3 Bft)
16.06.2013 13:30 18,8 C 55 % 1016,2 hPa 0,0 l/m 8,5 km/h (2 Bft) SW 234 0 min 0,000 mm 4,1 UV-I 413 W/m 9,6 C 17,9 C 20,9 km/h (4 Bft)
16.06.2013 13:35 19,1 C 52 % 1016,2 hPa 0,0 l/m 7,7 km/h (2 Bft) S-SW 204 5 min 0,000 mm 3,6 UV-I 680 W/m 9,0 C 18,5 C 17,7 km/h (3 Bft)
16.06.2013 13:40 19,2 C 51 % 1016,2 hPa 0,0 l/m 4,1 km/h (1 Bft) W 275 0 min 0,000 mm 3,7 UV-I 355 W/m 8,8 C 19,2 C 11,3 km/h (2 Bft)
16.06.2013 13:45 19,4 C 50 % 1016,1 hPa 0,0 l/m 10,7 km/h (2 Bft) W 259 5 min 0,000 mm 7,0 UV-I 1004 W/m 8,7 C 17,7 C 24,1 km/h (4 Bft)
16.06.2013 13:50 19,7 C 51 % 1016,2 hPa 0,0 l/m 10,8 km/h (2 Bft) W-NW 300 5 min 0,000 mm 7,2 UV-I 976 W/m 9,3 C 18,0 C 17,7 km/h (3 Bft)
16.06.2013 13:55 20,1 C 46 % 1016,1 hPa 0,0 l/m 8,5 km/h (2 Bft) W 277 5 min 0,000 mm 7,1 UV-I 972 W/m 8,1 C 19,3 C 19,3 km/h (3 Bft)
16.06.2013 14:00 20,1 C 49 % 1016,0 hPa 0,0 l/m 9,4 km/h (2 Bft) W 279 5 min 0,000 mm 6,9 UV-I 935 W/m 9,0 C 19,0 C 17,7 km/h (3 Bft)
16.06.2013 14:05 20,2 C 48 % 1016,0 hPa 0,0 l/m 9,5 km/h (2 Bft) NW 307 5 min 0,431 mm 7,0 UV-I 984 W/m 8,8 C 19,0 C 19,3 km/h (3 Bft)
16.06.2013 14:10 20,6 C 49 % 1016,0 hPa 0,0 l/m 9,7 km/h (2 Bft) SW 217 5 min 0,000 mm 7,0 UV-I 979 W/m 9,5 C 19,4 C 24,1 km/h (4 Bft)
16.06.2013 14:15 20,8 C 45 % 1016,0 hPa 0,0 l/m 10,8 km/h (2 Bft) S 173 5 min 0,000 mm 6,9 UV-I 1002 W/m 8,4 C 19,3 C 24,1 km/h (4 Bft)
16.06.2013 14:20 21,0 C 44 % 1015,9 hPa 0,0 l/m 11,6 km/h (2 Bft) S-SW 207 5 min 0,000 mm 4,4 UV-I 587 W/m 8,3 C 19,3 C 20,9 km/h (4 Bft)
16.06.2013 14:25 20,7 C 44 % 1015,9 hPa 0,0 l/m 6,2 km/h (2 Bft) SW 226 0 min 0,000 mm 3,4 UV-I 383 W/m 8,0 C 20,7 C 12,9 km/h (3 Bft)
16.06.2013 14:30 20,3 C 45 % 1016,0 hPa 0,0 l/m 10,0 km/h (2 Bft) W-SW 257 5 min 0,000 mm 3,6 UV-I 515 W/m 8,0 C 19,0 C 19,3 km/h (3 Bft)
16.06.2013 14:35 20,0 C 47 % 1015,9 hPa 0,0 l/m 8,9 km/h (2 Bft) SW 229 5 min 0,000 mm 6,4 UV-I 953 W/m 8,3 C 19,0 C 16,1 km/h (3 Bft)
16.06.2013 14:40 20,6 C 47 % 1015,9 hPa 0,0 l/m 9,7 km/h (2 Bft) W-SW 247 5 min 0,000 mm 5,9 UV-I 812 W/m 8,9 C 19,4 C 24,1 km/h (4 Bft)
16.06.2013 14:45 20,9 C 45 % 1015,9 hPa 0,0 l/m 6,2 km/h (2 Bft) S-SW 198 5 min 0,000 mm 5,0 UV-I 882 W/m 8,5 C 20,9 C 12,9 km/h (3 Bft)
16.06.2013 14:50 20,8 C 44 % 1015,9 hPa 0,0 l/m 8,4 km/h (2 Bft) S-SW 196 5 min 0,000 mm 4,7 UV-I 552 W/m 8,1 C 20,0 C 16,1 km/h (3 Bft)
16.06.2013 14:55 20,9 C 43 % 1015,9 hPa 0,0 l/m 8,4 km/h (2 Bft) S-SW 202 5 min 0,000 mm 6,0 UV-I 552 W/m 7,8 C 20,2 C 16,1 km/h (3 Bft)
16.06.2013 15:00 20,5 C 45 % 1015,8 hPa 0,0 l/m 6,5 km/h (2 Bft) W 259 5 min 0,000 mm 5,8 UV-I 867 W/m 8,2 C 20,5 C 14,5 km/h (3 Bft)
16.06.2013 15:05 21,0 C 47 % 1015,7 hPa 0,0 l/m 6,2 km/h (2 Bft) W-NW 283 5 min 0,483 mm 4,6 UV-I 631 W/m 9,3 C 21,0 C 14,5 km/h (3 Bft)
16.06.2013 15:10 21,4 C 45 % 1015,6 hPa 0,0 l/m 8,4 km/h (2 Bft) W-SW 250 5 min 0,000 mm 5,7 UV-I 861 W/m 9,0 C 20,7 C 19,3 km/h (3 Bft)
16.06.2013 15:15 21,5 C 45 % 1015,6 hPa 0,0 l/m 5,9 km/h (2 Bft) W-SW 240 5 min 0,000 mm 4,6 UV-I 647 W/m 9,1 C 21,5 C 12,9 km/h (3 Bft)
16.06.2013 15:20 21,8 C 45 % 1015,6 hPa 0,0 l/m 4,8 km/h (1 Bft) W 271 5 min 0,000 mm 5,2 UV-I 777 W/m 9,3 C 21,8 C 11,3 km/h (2 Bft)
16.06.2013 15:25 22,2 C 42 % 1015,6 hPa 0,0 l/m 7,6 km/h (2 Bft) W-SW 237 5 min 0,000 mm 5,4 UV-I 826 W/m 8,7 C 21,8 C 16,1 km/h (3 Bft)
16.06.2013 15:30 22,4 C 40 % 1015,6 hPa 0,0 l/m 6,4 km/h (2 Bft) S 180 5 min 0,000 mm 3,6 UV-I 853 W/m 8,1 C 22,4 C 12,9 km/h (3 Bft)
16.06.2013 15:35 22,2 C 41 % 1015,6 hPa 0,0 l/m 7,3 km/h (2 Bft) SW 224 0 min 0,000 mm 3,2 UV-I 343 W/m 8,3 C 21,9 C 17,7 km/h (3 Bft)
16.06.2013 15:40 21,8 C 43 % 1015,5 hPa 0,0 l/m 5,9 km/h (2 Bft) W-SW 250 5 min 0,000 mm 4,1 UV-I 615 W/m 8,7 C 21,8 C 16,1 km/h (3 Bft)
16.06.2013 15:45 22,6 C 41 % 1015,5 hPa 0,0 l/m 2,9 km/h (1 Bft) W 270 5 min 0,000 mm 4,6 UV-I 691 W/m 8,7 C 22,6 C 11,3 km/h (2 Bft)
16.06.2013 15:50 22,2 C 42 % 1015,6 hPa 0,0 l/m 7,7 km/h (2 Bft) SW 219 5 min 0,000 mm 4,5 UV-I 712 W/m 8,7 C 21,8 C 19,3 km/h (3 Bft)
16.06.2013 15:55 21,8 C 43 % 1015,5 hPa 0,0 l/m 9,5 km/h (2 Bft) S-SW 196 5 min 0,000 mm 4,5 UV-I 721 W/m 8,7 C 20,8 C 19,3 km/h (3 Bft)
16.06.2013 16:00 22,3 C 43 % 1015,5 hPa 0,0 l/m 7,1 km/h (2 Bft) W 277 5 min 0,000 mm 4,2 UV-I 680 W/m 9,1 C 22,1 C 19,3 km/h (3 Bft)
16.06.2013 16:05 21,7 C 43 % 1015,7 hPa 0,0 l/m 7,6 km/h (2 Bft) SW 232 5 min 0,483 mm 3,9 UV-I 791 W/m 8,6 C 21,3 C 16,1 km/h (3 Bft)
16.06.2013 16:10 22,7 C 42 % 1015,5 hPa 0,0 l/m 3,9 km/h (1 Bft) S-SW 207 0 min 0,000 mm 4,5 UV-I 383 W/m 9,1 C 22,7 C 11,3 km/h (2 Bft)
16.06.2013 16:15 22,8 C 40 % 1015,4 hPa 0,0 l/m 7,1 km/h (2 Bft) S-SW 198 5 min 0,000 mm 3,4 UV-I 571 W/m 8,5 C 22,6 C 16,1 km/h (3 Bft)
16.06.2013 16:20 22,3 C 39 % 1015,5 hPa 0,0 l/m 9,3 km/h (2 Bft) SW 223 5 min 0,000 mm 3,9 UV-I 496 W/m 7,7 C 21,4 C 19,3 km/h (3 Bft)
16.06.2013 16:25 22,6 C 41 % 1015,5 hPa 0,0 l/m 5,6 km/h (1 Bft) S-SW 198 5 min 0,000 mm 4,4 UV-I 708 W/m 8,7 C 22,6 C 11,3 km/h (2 Bft)
16.06.2013 16:30 22,6 C 41 % 1015,5 hPa 0,0 l/m 7,1 km/h (2 Bft) SW 228 5 min 0,000 mm 3,8 UV-I 682 W/m 8,7 C 22,4 C 14,5 km/h (3 Bft)
16.06.2013 16:35 21,6 C 44 % 1015,5 hPa 0,0 l/m 9,3 km/h (2 Bft) SW 232 5 min 0,000 mm 3,4 UV-I 643 W/m 8,8 C 20,6 C 16,1 km/h (3 Bft)
16.06.2013 16:40 22,3 C 42 % 1015,5 hPa 0,0 l/m 6,4 km/h (2 Bft) SO 127 5 min 0,000 mm 3,8 UV-I 775 W/m 8,8 C 22,3 C 12,9 km/h (3 Bft)
16.06.2013 16:45 22,5 C 41 % 1015,5 hPa 0,0 l/m 6,8 km/h (2 Bft) W-SW 250 5 min 0,000 mm 3,3 UV-I 599 W/m 8,6 C 22,4 C 12,9 km/h (3 Bft)
16.06.2013 16:50 21,9 C 39 % 1015,4 hPa 0,0 l/m 6,1 km/h (2 Bft) W-NW 300 5 min 0,000 mm 3,6 UV-I 756 W/m 7,3 C 21,9 C 12,9 km/h (3 Bft)
16.06.2013 16:55 22,9 C 41 % 1015,5 hPa 0,0 l/m 4,7 km/h (1 Bft) W-SW 245 5 min 0,000 mm 3,3 UV-I 664 W/m 8,9 C 22,9 C 11,3 km/h (2 Bft)
16.06.2013 17:00 22,7 C 37 % 1015,4 hPa 0,0 l/m 7,4 km/h (2 Bft) W 267 5 min 0,000 mm 3,4 UV-I 749 W/m 7,3 C 22,4 C 20,9 km/h (4 Bft)
16.06.2013 17:05 22,4 C 38 % 1015,4 hPa 0,0 l/m 9,4 km/h (2 Bft) NW 304 5 min 0,457 mm 3,3 UV-I 680 W/m 7,4 C 21,5 C 17,7 km/h (3 Bft)
16.06.2013 17:10 22,6 C 39 % 1015,4 hPa 0,0 l/m 9,0 km/h (2 Bft) W-NW 294 5 min 0,000 mm 2,7 UV-I 424 W/m 7,9 C 21,8 C 19,3 km/h (3 Bft)
16.06.2013 17:15 21,9 C 39 % 1015,4 hPa 0,0 l/m 11,1 km/h (2 Bft) W-SW 252 5 min 0,000 mm 3,1 UV-I 633 W/m 7,3 C 20,4 C 19,3 km/h (3 Bft)
16.06.2013 17:20 22,2 C 39 % 1015,4 hPa 0,0 l/m 5,7 km/h (1 Bft) W 267 5 min 0,000 mm 2,2 UV-I 598 W/m 7,6 C 22,2 C 11,3 km/h (2 Bft)
16.06.2013 17:25 22,8 C 39 % 1015,3 hPa 0,0 l/m 5,1 km/h (1 Bft) S-SW 208 5 min 0,000 mm 2,2 UV-I 499 W/m 8,1 C 22,8 C 11,3 km/h (2 Bft)
16.06.2013 17:30 22,4 C 42 % 1015,4 hPa 0,0 l/m 6,8 km/h (2 Bft) W-SW 256 5 min 0,000 mm 2,5 UV-I 657 W/m 8,9 C 22,3 C 14,5 km/h (3 Bft)
16.06.2013 17:35 22,6 C 40 % 1015,4 hPa 0,0 l/m 5,4 km/h (1 Bft) W-SW 250 5 min 0,000 mm 2,5 UV-I 568 W/m 8,3 C 22,6 C 12,9 km/h (3 Bft)
16.06.2013 17:40 22,2 C 41 % 1015,2 hPa 0,0 l/m 6,7 km/h (2 Bft) W-SW 250 5 min 0,000 mm 1,9 UV-I 452 W/m 8,3 C 22,1 C 14,5 km/h (3 Bft)
16.06.2013 17:45 22,0 C 42 % 1015,2 hPa 0,0 l/m 6,2 km/h (2 Bft) W-SW 257 5 min 0,000 mm 2,4 UV-I 369 W/m 8,5 C 22,0 C 16,1 km/h (3 Bft)
16.06.2013 17:50 22,4 C 41 % 1015,1 hPa 0,0 l/m 5,7 km/h (1 Bft) W 281 5 min 0,000 mm 1,5 UV-I 529 W/m 8,5 C 22,4 C 11,3 km/h (2 Bft)
16.06.2013 17:55 22,2 C 41 % 1015,1 hPa 0,0 l/m 4,8 km/h (1 Bft) W 273 0 min 0,000 mm 1,5 UV-I 257 W/m 8,3 C 22,2 C 9,7 km/h (2 Bft)
16.06.2013 18:00 22,4 C 41 % 1015,1 hPa 0,0 l/m 2,5 km/h (1 Bft) W-SW 240 0 min 0,000 mm 1,4 UV-I 241 W/m 8,5 C 22,4 C 8,0 km/h (2 Bft)
16.06.2013 18:05 22,8 C 41 % 1015,1 hPa 0,0 l/m 2,3 km/h (1 Bft) W-SW 255 0 min 0,355 mm 1,3 UV-I 183 W/m 8,9 C 22,8 C 4,8 km/h (1 Bft)
16.06.2013 18:10 22,6 C 40 % 1015,1 hPa 0,0 l/m 3,0 km/h (1 Bft) S 182 0 min 0,000 mm 1,3 UV-I 251 W/m 8,3 C 22,6 C 12,9 km/h (3 Bft)
16.06.2013 18:15 22,3 C 41 % 1015,2 hPa 0,0 l/m 5,9 km/h (2 Bft) W-SW 255 0 min 0,000 mm 1,2 UV-I 193 W/m 8,4 C 22,3 C 11,3 km/h (2 Bft)
16.06.2013 18:20 21,7 C 42 % 1015,1 hPa 0,0 l/m 6,3 km/h (2 Bft) NW 306 0 min 0,000 mm 1,1 UV-I 169 W/m 8,2 C 21,7 C 11,3 km/h (2 Bft)
16.06.2013 18:25 21,6 C 43 % 1015,1 hPa 0,0 l/m 1,8 km/h (1 Bft) NW 311 0 min 0,000 mm 1,2 UV-I 190 W/m 8,5 C 21,6 C 6,4 km/h (2 Bft)
16.06.2013 18:30 21,8 C 44 % 1015,0 hPa 0,0 l/m 1,9 km/h (1 Bft) W 274 0 min 0,000 mm 1,1 UV-I 190 W/m 9,0 C 21,8 C 4,8 km/h (1 Bft)
16.06.2013 18:35 22,2 C 42 % 1015,0 hPa 0,0 l/m 2,3 km/h (1 Bft) W-NW 302 5 min 0,000 mm 1,1 UV-I 411 W/m 8,7 C 22,2 C 4,8 km/h (1 Bft)
16.06.2013 18:40 22,3 C 41 % 1015,0 hPa 0,0 l/m 1,7 km/h (1 Bft) W-SW 249 5 min 0,000 mm 1,0 UV-I 322 W/m 8,4 C 22,3 C 6,4 km/h (2 Bft)
16.06.2013 18:45 22,6 C 41 % 1015,0 hPa 0,0 l/m 1,0 km/h (0 Bft) W-SW 250 5 min 0,000 mm 0,9 UV-I 332 W/m 8,7 C 22,6 C 4,8 km/h (1 Bft)
16.06.2013 18:50 22,7 C 41 % 1015,0 hPa 0,0 l/m 1,1 km/h (1 Bft) N-NW 332 0 min 0,000 mm 0,8 UV-I 149 W/m 8,8 C 22,7 C 4,8 km/h (1 Bft)
16.06.2013 18:55 22,7 C 40 % 1015,0 hPa 0,0 l/m 0,6 km/h (0 Bft) N-NW 332 0 min 0,000 mm 0,7 UV-I 141 W/m 8,4 C 22,7 C 3,2 km/h (1 Bft)
16.06.2013 19:00 22,8 C 41 % 1015,0 hPa 0,0 l/m 0,3 km/h (0 Bft) N-NW 332 5 min 0,000 mm 0,7 UV-I 232 W/m 8,9 C 22,8 C 3,2 km/h (1 Bft)
16.06.2013 19:05 22,8 C 41 % 1015,0 hPa 0,0 l/m 0,2 km/h (0 Bft) N-NW 332 5 min 0,178 mm 0,7 UV-I 216 W/m 8,9 C 22,8 C 3,2 km/h (1 Bft)
16.06.2013 19:10 22,9 C 41 % 1015,0 hPa 0,0 l/m 0,3 km/h (0 Bft) N-NW 332 5 min 0,000 mm 0,6 UV-I 197 W/m 8,9 C 22,9 C 3,2 km/h (1 Bft)
16.06.2013 19:15 22,9 C 41 % 1015,0 hPa 0,0 l/m 0,4 km/h (0 Bft) N-NW 332 0 min 0,000 mm 0,6 UV-I 163 W/m 8,9 C 22,9 C 3,2 km/h (1 Bft)
16.06.2013 19:20 22,8 C 41 % 1015,0 hPa 0,0 l/m 0,2 km/h (0 Bft) N-NW 332 0 min 0,000 mm 0,5 UV-I 132 W/m 8,9 C 22,8 C 3,2 km/h (1 Bft)
16.06.2013 19:25 22,8 C 42 % 1015,1 hPa 0,0 l/m 0,0 km/h (0 Bft) N-NW 332 0 min 0,000 mm 0,5 UV-I 113 W/m 9,2 C 22,8 C 1,6 km/h (1 Bft)
16.06.2013 19:30 22,7 C 45 % 1015,1 hPa 0,0 l/m 0,0 km/h (0 Bft) N-NW 332 0 min 0,000 mm 0,0 UV-I 107 W/m 10,1 C 22,7 C 1,6 km/h (1 Bft)
16.06.2013 19:35 22,6 C 44 % 1015,1 hPa 0,0 l/m 0,0 km/h (0 Bft) N-NW 332 0 min 0,000 mm 0,0 UV-I 93 W/m 9,7 C 22,6 C 1,6 km/h (1 Bft)
16.06.2013 19:40 22,3 C 44 % 1015,1 hPa 0,0 l/m 0,1 km/h (0 Bft) N-NW 332 0 min 0,000 mm 0,0 UV-I 102 W/m 9,5 C 22,3 C 1,6 km/h (1 Bft)
16.06.2013 19:45 22,2 C 44 % 1015,1 hPa 0,0 l/m 0,0 km/h (0 Bft) N-NW 332 0 min 0,000 mm 0,0 UV-I 109 W/m 9,4 C 22,2 C 1,6 km/h (1 Bft)
16.06.2013 19:50 22,0 C 45 % 1015,1 hPa 0,0 l/m 0,0 km/h (0 Bft) N-NW 332 0 min 0,000 mm 0,0 UV-I 91 W/m 9,5 C 22,0 C 0,0 km/h (0 Bft)
16.06.2013 19:55 21,8 C 47 % 1015,1 hPa 0,0 l/m 0,0 km/h (0 Bft) N-NW 332 0 min 0,000 mm 0,0 UV-I 72 W/m 10,0 C 21,8 C 0,0 km/h (0 Bft)
16.06.2013 20:00 21,6 C 49 % 1015,1 hPa 0,0 l/m 0,0 km/h (0 Bft) N-NW 332 0 min 0,000 mm 0,0 UV-I 98 W/m 10,4 C 21,6 C 0,0 km/h (0 Bft)
16.06.2013 20:05 21,2 C 51 % 1015,1 hPa 0,0 l/m 0,0 km/h (0 Bft) N-NW 332 0 min 0,076 mm 0,0 UV-I 102 W/m 10,7 C 21,2 C 0,0 km/h (0 Bft)
16.06.2013 20:10 20,6 C 52 % 1015,0 hPa 0,0 l/m 0,4 km/h (0 Bft) N-NW 332 0 min 0,000 mm 0,0 UV-I 76 W/m 10,4 C 20,6 C 3,2 km/h (1 Bft)
16.06.2013 20:15 20,3 C 53 % 1015,1 hPa 0,0 l/m 0,0 km/h (0 Bft) N-NW 332 0 min 0,000 mm 0,0 UV-I 58 W/m 10,4 C 20,3 C 0,0 km/h (0 Bft)
16.06.2013 20:20 20,3 C 54 % 1015,2 hPa 0,0 l/m 0,0 km/h (0 Bft) N-NW 332 0 min 0,000 mm 0,0 UV-I 47 W/m 10,7 C 20,3 C 0,0 km/h (0 Bft)
16.06.2013 20:25 20,2 C 53 % 1015,1 hPa 0,0 l/m 0,0 km/h (0 Bft) N-NW 332 0 min 0,000 mm 0,0 UV-I 46 W/m 10,3 C 20,2 C 1,6 km/h (1 Bft)
16.06.2013 20:30 20,2 C 52 % 1015,0 hPa 0,0 l/m 0,0 km/h (0 Bft) N-NW 332 0 min 0,000 mm 0,0 UV-I 42 W/m 10,0 C 20,2 C 1,6 km/h (1 Bft)
16.06.2013 20:35 20,1 C 53 % 1015,0 hPa 0,0 l/m 0,0 km/h (0 Bft) N-NW 332 0 min 0,000 mm 0,0 UV-I 39 W/m 10,2 C 20,1 C 0,0 km/h (0 Bft)
16.06.2013 20:40 19,9 C 53 % 1015,0 hPa 0,0 l/m 0,0 km/h (0 Bft) N-NW 332 0 min 0,000 mm 0,0 UV-I 33 W/m 10,0 C 19,9 C 1,6 km/h (1 Bft)
16.06.2013 20:45 19,7 C 56 % 1015,1 hPa 0,0 l/m 0,8 km/h (0 Bft) N-NO 22 0 min 0,000 mm 0,0 UV-I 30 W/m 10,7 C 19,7 C 3,2 km/h (1 Bft)
16.06.2013 20:50 19,1 C 54 % 1015,0 hPa 0,0 l/m 1,4 km/h (1 Bft) N-NO 22 0 min 0,000 mm 0,0 UV-I 28 W/m 9,6 C 19,1 C 3,2 km/h (1 Bft)
16.06.2013 20:55 18,8 C 56 % 1015,1 hPa 0,0 l/m 0,3 km/h (0 Bft) N-NO 22 0 min 0,000 mm 0,0 UV-I 26 W/m 9,8 C 18,8 C 1,6 km/h (1 Bft)
16.06.2013 21:00 18,6 C 56 % 1015,0 hPa 0,0 l/m 0,0 km/h (0 Bft) N-NO 22 0 min 0,000 mm 0,0 UV-I 25 W/m 9,6 C 18,6 C 0,0 km/h (0 Bft)
16.06.2013 21:05 18,4 C 59 % 1015,1 hPa 0,0 l/m 0,0 km/h (0 Bft) N-NO 22 0 min 0,026 mm 0,0 UV-I 21 W/m 10,2 C 18,4 C 0,0 km/h (0 Bft)
16.06.2013 21:10 18,3 C 60 % 1014,9 hPa 0,0 l/m 0,0 km/h (0 Bft) N-NO 22 0 min 0,000 mm 0,0 UV-I 19 W/m 10,4 C 18,3 C 1,6 km/h (1 Bft)
16.06.2013 21:15 17,9 C 62 % 1015,0 hPa 0,0 l/m 0,0 km/h (0 Bft) N-NO 22 0 min 0,000 mm 0,0 UV-I 18 W/m 10,5 C 17,9 C 0,0 km/h (0 Bft)
16.06.2013 21:20 17,8 C 62 % 1014,9 hPa 0,0 l/m 0,0 km/h (0 Bft) N-NO 22 5 min 0,000 mm 0,0 UV-I 18 W/m 10,4 C 17,8 C 0,0 km/h (0 Bft)
16.06.2013 21:25 17,8 C 60 % 1014,9 hPa 0,0 l/m 0,0 km/h (0 Bft) N-NO 22 5 min 0,000 mm 0,0 UV-I 12 W/m 9,9 C 17,8 C 0,0 km/h (0 Bft)
16.06.2013 21:30 17,7 C 62 % 1015,1 hPa 0,0 l/m 0,0 km/h (0 Bft) N-NO 22 0 min 0,000 mm 0,0 UV-I 9 W/m 10,3 C 17,7 C 0,0 km/h (0 Bft)
16.06.2013 21:35 17,5 C 63 % 1015,2 hPa 0,0 l/m 0,2 km/h (0 Bft) O-NO 59 0 min 0,000 mm 0,0 UV-I 5 W/m 10,4 C 17,5 C 4,8 km/h (1 Bft)
16.06.2013 21:40 17,0 C 65 % 1015,1 hPa 0,0 l/m 1,8 km/h (1 Bft) O-NO 64 0 min 0,000 mm 0,0 UV-I 0 W/m 10,4 C 17,0 C 4,8 km/h (1 Bft)
16.06.2013 21:45 16,7 C 65 % 1015,0 hPa 0,0 l/m 0,0 km/h (0 Bft) O-NO 64 0 min 0,000 mm 0,0 UV-I 0 W/m 10,1 C 16,7 C 1,6 km/h (1 Bft)
16.06.2013 21:50 16,3 C 69 % 1015,3 hPa 0,0 l/m 2,1 km/h (1 Bft) O-SO 103 0 min 0,000 mm 0,0 UV-I 0 W/m 10,6 C 16,3 C 4,8 km/h (1 Bft)
16.06.2013 21:55 16,1 C 69 % 1015,3 hPa 0,0 l/m 0,0 km/h (0 Bft) O-SO 103 0 min 0,000 mm 0,0 UV-I 0 W/m 10,4 C 16,1 C 1,6 km/h (1 Bft)
16.06.2013 22:00 15,9 C 69 % 1015,3 hPa 0,0 l/m 0,2 km/h (0 Bft) O 101 0 min 0,000 mm 0,0 UV-I 0 W/m 10,2 C 15,9 C 1,6 km/h (1 Bft)
16.06.2013 22:05 15,7 C 70 % 1015,3 hPa 0,0 l/m 0,0 km/h (0 Bft) O 101 0 min 0,025 mm 0,0 UV-I 0 W/m 10,2 C 15,7 C 1,6 km/h (1 Bft)
16.06.2013 22:10 15,4 C 71 % 1015,5 hPa 0,0 l/m 0,8 km/h (0 Bft) O 101 0 min 0,000 mm 0,0 UV-I 0 W/m 10,2 C 15,4 C 3,2 km/h (1 Bft)
16.06.2013 22:15 15,3 C 71 % 1015,6 hPa 0,0 l/m 0,0 km/h (0 Bft) O 101 0 min 0,000 mm 0,0 UV-I 0 W/m 10,1 C 15,3 C 1,6 km/h (1 Bft)
16.06.2013 22:20 15,3 C 71 % 1015,6 hPa 0,0 l/m 0,1 km/h (0 Bft) O 100 0 min 0,000 mm 0,0 UV-I 0 W/m 10,1 C 15,3 C 1,6 km/h (1 Bft)
16.06.2013 22:25 15,3 C 72 % 1015,5 hPa 0,0 l/m 0,6 km/h (0 Bft) NO 54 0 min 0,000 mm 0,0 UV-I 0 W/m 10,3 C 15,3 C 4,8 km/h (1 Bft)
16.06.2013 22:30 15,3 C 72 % 1015,5 hPa 0,0 l/m 0,0 km/h (0 Bft) NO 54 0 min 0,000 mm 0,0 UV-I 0 W/m 10,3 C 15,3 C 0,0 km/h (0 Bft)
16.06.2013 22:35 15,3 C 72 % 1015,5 hPa 0,0 l/m 0,0 km/h (0 Bft) NO 54 0 min 0,000 mm 0,0 UV-I 0 W/m 10,3 C 15,3 C 0,0 km/h (0 Bft)
16.06.2013 22:40 15,2 C 72 % 1015,5 hPa 0,0 l/m 0,0 km/h (0 Bft) NO 54 0 min 0,000 mm 0,0 UV-I 0 W/m 10,2 C 15,2 C 0,0 km/h (0 Bft)
16.06.2013 22:45 14,9 C 73 % 1015,4 hPa 0,0 l/m 0,0 km/h (0 Bft) NO 54 0 min 0,000 mm 0,0 UV-I 0 W/m 10,1 C 14,9 C 1,6 km/h (1 Bft)
16.06.2013 22:50 14,5 C 74 % 1015,5 hPa 0,0 l/m 0,7 km/h (0 Bft) NO 54 0 min 0,000 mm 0,0 UV-I 0 W/m 9,9 C 14,5 C 3,2 km/h (1 Bft)
16.06.2013 22:55 14,2 C 75 % 1015,5 hPa 0,0 l/m 1,2 km/h (1 Bft) NO 53 0 min 0,000 mm 0,0 UV-I 0 W/m 9,8 C 14,2 C 3,2 km/h (1 Bft)
16.06.2013 23:00 14,2 C 75 % 1015,6 hPa 0,0 l/m 0,2 km/h (0 Bft) NO 53 0 min 0,000 mm 0,0 UV-I 0 W/m 9,8 C 14,2 C 1,6 km/h (1 Bft)
16.06.2013 23:05 14,2 C 76 % 1015,6 hPa 0,0 l/m 0,0 km/h (0 Bft) NO 53 0 min 0,026 mm 0,0 UV-I 0 W/m 10,0 C 14,2 C 0,0 km/h (0 Bft)
16.06.2013 23:10 14,1 C 77 % 1015,4 hPa 0,0 l/m 0,0 km/h (0 Bft) NO 53 0 min 0,000 mm 0,0 UV-I 0 W/m 10,1 C 14,1 C 1,6 km/h (1 Bft)
16.06.2013 23:15 14,0 C 77 % 1015,4 hPa 0,0 l/m 0,0 km/h (0 Bft) NO 53 0 min 0,000 mm 0,0 UV-I 0 W/m 10,0 C 14,0 C 0,0 km/h (0 Bft)
16.06.2013 23:20 13,9 C 76 % 1015,5 hPa 0,0 l/m 0,1 km/h (0 Bft) NO 53 0 min 0,000 mm 0,0 UV-I 0 W/m 9,7 C 13,9 C 1,6 km/h (1 Bft)
16.06.2013 23:25 13,9 C 76 % 1015,5 hPa 0,0 l/m 0,0 km/h (0 Bft) NO 53 0 min 0,000 mm 0,0 UV-I 0 W/m 9,7 C 13,9 C 0,0 km/h (0 Bft)
16.06.2013 23:30 13,9 C 77 % 1015,5 hPa 0,0 l/m 0,0 km/h (0 Bft) NO 53 0 min 0,000 mm 0,0 UV-I 0 W/m 9,9 C 13,9 C 0,0 km/h (0 Bft)
16.06.2013 23:35 13,9 C 77 % 1015,5 hPa 0,0 l/m 0,0 km/h (0 Bft) NO 53 0 min 0,000 mm 0,0 UV-I 0 W/m 9,9 C 13,9 C 0,0 km/h (0 Bft)
16.06.2013 23:40 13,8 C 77 % 1015,5 hPa 0,0 l/m 0,0 km/h (0 Bft) NO 53 0 min 0,000 mm 0,0 UV-I 0 W/m 9,8 C 13,8 C 0,0 km/h (0 Bft)
16.06.2013 23:45 13,8 C 77 % 1015,5 hPa 0,0 l/m 0,0 km/h (0 Bft) NO 53 0 min 0,000 mm 0,0 UV-I 0 W/m 9,8 C 13,8 C 0,0 km/h (0 Bft)
16.06.2013 23:50 13,6 C 78 % 1015,4 hPa 0,0 l/m 0,0 km/h (0 Bft) NO 53 0 min 0,000 mm 0,0 UV-I 0 W/m 9,8 C 13,6 C 0,0 km/h (0 Bft)
16.06.2013 23:55 13,5 C 79 % 1015,4 hPa 0,0 l/m 0,0 km/h (0 Bft) NO 53 0 min 0,000 mm 0,0 UV-I 0 W/m 9,9 C 13,5 C 0,0 km/h (0 Bft)
_ Min-Zeit 05:50 17:00 00:00 - 00:20 - - - - - - 05:50 05:50 00:20
Minimum _ 7,8 C 37 % 1014,9 hPa - 0,0 km/h (0 Bft) - - - - - - 6,6 C 7,8 C 0,0 km/h (0 Bft)
_ Max-Zeit 16:30 07:00 08:55 00:00 14:20 - - 06:50 15:05 13:50 12:10 20:20 16:55 11:55
Maximum _ 23,1 C 94 % 1016,8 hPa 0,0 l/m 11,6 km/h
S-SW (2 Bft)
- - 5 min 0,483 mm 7,2 UV-I 1158 W/m 10,7 C 22,9 C 24,1 km/h
W-SW (4 Bft)
Durchschnitt _ 15,7 C 68 % 1015,8 hPa #0,0 l/m 2,7 km/h (1 Bft) W - #7:00 h #3,912 mm 3,1 UV-I 369 W/m 9,0 C 15,5 C 6,5 km/h (2 Bft)